星链-32095 (STARLINK-32095 )

导读

STARLINK-32095是美国SpaceX公司星链星座的一员,于2024年5月8日发射。星链项目旨在构建全球卫星互联网星座,为全球提供低延迟、高速率的互联网覆盖服务。该卫星进入预定轨道后,将进一步扩展星链星座的服务能力,推动全球太空互联网基础设施建设。

基本信息
目录编号:
59692
目录名称:
STARLINK-32095
国际标识:
2024-086L
轨道中心:
EARTH
卫星名称:
星链-32095
卫星全名:
星链-32095 (STARLINK-32095 )
卫星状态:
已陨落 最后检测时间 2025-04-24
发射日期:
2024-05-08 UTC
国别 :
美国 (US)
星等 :
--
该卫星已列入 空间交会检测服务 Space Conjunction Data Service (SCDS) ,当前飞行风险评估等级: 无高风险
轨道信息
数据来源 国际轨道数据
星历时间: 2025-04-14T16:00:02+0800
轨道信息已过期515天
半长轴: 6582.623km
偏心率: 0.0010574
轨道倾角: 42.969°
近地点辐角 235.789°
升交点赤经 82.157°
平近点角 293.692°
近地点: 197.527km
远地点: 211.449km
周期: 88.585分钟
每日圈数: 16.25565
详细信息
固有亮度:
5
最大亮度:
1.5
卫星平台:
Starlink v2.0 mini
覆盖范围:
全球
运营商:
太空探索技术公司
运营商所在国:
美国
制造商(研发单位):
太空探索技术公司
制造商所在国:
美国
使用方式:
暂无
卫星简介
星链(Starlink)计划是由太空探索技术公司(SpaceX)提出的一个巨型低轨卫星互联网星座项目,计划在2019年至2024年间在太空搭建由约1.2万颗卫星组成的“星链”网络,其中1584颗将部署在地球上空550千米处的近地轨道,并从2020年开始工作。该卫星仍在工作。
与全量物体交会距离演化趋势
与全量物体交会风险概率演化趋势